Brodnax, VA

3:37 PM EST on December 07, 2016 (GMT -0500)
Mecklenburg-Brunswick Regional

Weather History for KAVC - January, 2013

Change the Weather History Date:

Thursday, January 31, 2013

  Actual Average (KEMV) Record (KEMV)
Temperature  
Mean Temperature - -  
Max Temperature - 54 °F 69 °F (2013)
Min Temperature - 30 °F 10 °F (2014)
Moisture  
Dew Point -    
Average Humidity    
Maximum Humidity    
Minimum Humidity    
Precipitation  
Precipitation 0.18 in - - ()
Sea Level Pressure  
Sea Level Pressure 29.78 in    
Wind  
Wind Speed 15 mph (WSW)    
Max Wind Speed 28 mph    
Max Gust Speed 39 mph    
Visibility 10 miles    
Events Rain    
Averages and records for this station are not official NWS values.
T = Trace of Precipitation, MM = Missing Value Source: NWS Daily Summary

Daily Weather History Graph

Daily Weather History Graph

Search for Another Location

Airport or City:

Trip Planner

Search our weather history database for the weather conditions in past years. The results will help you decide how hot, cold, wet, or windy it might be!

Date:

Astronomy

Jan. 31, 2013 Rise Set
Actual Time 7:14 AM EST 5:37 PM EST
Civil Twilight 6:47 AM EST 6:04 PM EST
Nautical Twilight 6:16 AM EST 6:35 PM EST
Astronomical Twilight 5:46 AM EST 7:05 PM EST
Moon 10:27 PM EST (1/31) 9:22 AM EST (1/31)
Length of Visible Light 11h 16m
Length of Day
10h 22m
Waning Gibbous, 80% of the Moon is Illuminated
Jan 31
Waning Gibbous
Feb 3
Last Quarter
Feb 10
New
Feb 17
First Quarter
Feb 25
Full

Hourly Weather History & Observations

Time (EST) Temp. Dew Point Humidity Pressure Visibility Wind Dir Wind Speed Gust Speed Precip Events Conditions
12:15 AM - - N/A% 29.37 in 10.0 mi South 18.4 mph 31.1 mph 0.01 in Rain Light Rain
12:35 AM - - N/A% 29.42 in 2.0 mi SW 27.6 mph 39.1 mph 0.31 in Rain Heavy Rain
12:55 AM - - N/A% 29.45 in 7.0 mi SW 21.9 mph 36.8 mph 0.04 in Rain Rain
1:15 AM - - N/A% 29.45 in 10.0 mi SW 21.9 mph 33.4 mph 0.05 in   Drizzle
1:35 AM - - N/A% 29.46 in 10.0 mi SW 21.9 mph 33.4 mph 0.10 in Rain Rain
1:55 AM - - N/A% 29.44 in 10.0 mi SSW 15.0 mph 27.6 mph 0.01 in Rain Light Rain
2:15 AM - - N/A% 29.45 in 10.0 mi SW 13.8 mph 28.8 mph 0.03 in Rain Rain
2:35 AM - - N/A% 29.44 in 10.0 mi SSW 13.8 mph 20.7 mph 0.04 in Rain Light Rain
2:55 AM - - N/A% 29.46 in 10.0 mi SW 17.3 mph 27.6 mph N/A   Overcast
3:15 AM - - N/A% 29.45 in 10.0 mi SW 19.6 mph 25.3 mph N/A   Mostly Cloudy
3:35 AM - - N/A% 29.47 in 10.0 mi SSW 17.3 mph 27.6 mph N/A   Mostly Cloudy
3:55 AM - - N/A% 29.48 in 10.0 mi SW 19.6 mph 31.1 mph N/A   Mostly Cloudy
4:15 AM - - N/A% 29.49 in 10.0 mi SW 17.3 mph 25.3 mph N/A   Overcast
4:35 AM - - N/A% 29.51 in 10.0 mi SW 15.0 mph 26.5 mph N/A   Overcast
4:55 AM - - N/A% 29.53 in 7.0 mi WSW 15.0 mph 31.1 mph N/A Rain Rain
5:15 AM - - N/A% 29.55 in 10.0 mi SW 12.7 mph 27.6 mph N/A   Overcast
5:35 AM - - N/A% 29.57 in 10.0 mi West 10.4 mph 24.2 mph N/A   Overcast
5:55 AM - - N/A% 29.59 in 10.0 mi West 12.7 mph 25.3 mph N/A   Overcast
6:15 AM - - N/A% 29.62 in 10.0 mi West 11.5 mph 27.6 mph N/A   Overcast
6:35 AM - - N/A% 29.64 in 10.0 mi West 11.5 mph 23.0 mph N/A   Overcast
6:55 AM - - N/A% 29.66 in 10.0 mi West 18.4 mph 27.6 mph N/A   Mostly Cloudy
7:15 AM - - N/A% 29.67 in 10.0 mi West 12.7 mph 24.2 mph N/A   Scattered Clouds
7:35 AM - - N/A% 29.69 in 10.0 mi West 10.4 mph 20.7 mph N/A   Clear
7:55 AM - - N/A% 29.72 in 10.0 mi West 11.5 mph 23.0 mph N/A   Clear
8:15 AM - - N/A% 29.74 in 10.0 mi West 12.7 mph 24.2 mph N/A   Clear
8:35 AM - - N/A% 29.76 in 10.0 mi West 15.0 mph 26.5 mph N/A   Clear
8:55 AM - - N/A% 29.77 in 10.0 mi West 11.5 mph 31.1 mph N/A   Clear
9:15 AM - - N/A% 29.78 in 10.0 mi West 12.7 mph 25.3 mph N/A   Clear
9:35 AM - - N/A% 29.80 in 10.0 mi West 13.8 mph 28.8 mph N/A   Clear
9:55 AM - - N/A% 29.81 in 10.0 mi West 10.4 mph 26.5 mph N/A   Clear
10:15 AM - - N/A% 29.83 in 10.0 mi West 18.4 mph 31.1 mph N/A   Clear
10:35 AM - - N/A% 29.83 in 10.0 mi West 11.5 mph 23.0 mph N/A   Clear
10:55 AM - - N/A% 29.84 in 10.0 mi West 13.8 mph 25.3 mph N/A   Clear
11:15 AM - - N/A% 29.85 in 10.0 mi West 13.8 mph 26.5 mph N/A   Clear
11:35 AM - - N/A% 29.85 in 10.0 mi West 9.2 mph 29.9 mph N/A   Clear
11:55 AM - - N/A% 29.86 in 10.0 mi West 9.2 mph 26.5 mph N/A   Clear
12:15 PM - - N/A% 29.84 in 10.0 mi West 10.4 mph 32.2 mph N/A   Clear
12:35 PM - - N/A% 29.84 in 10.0 mi WSW 13.8 mph 26.5 mph N/A   Clear
12:55 PM - - N/A% 29.84 in 10.0 mi WSW 17.3 mph 31.1 mph N/A   Clear
1:15 PM - - N/A% 29.83 in 10.0 mi West 15.0 mph 24.2 mph N/A   Clear
1:35 PM - - N/A% 29.84 in 10.0 mi WSW 17.3 mph 26.5 mph N/A   Clear
1:55 PM - - N/A% 29.84 in 10.0 mi WSW 18.4 mph 25.3 mph N/A   Scattered Clouds
2:15 PM - - N/A% 29.85 in 10.0 mi WSW 17.3 mph 25.3 mph N/A   Scattered Clouds
2:35 PM - - N/A% 29.86 in 10.0 mi WSW 13.8 mph 21.9 mph N/A   Mostly Cloudy
2:55 PM - - N/A% 29.86 in 10.0 mi WSW 15.0 mph 28.8 mph N/A   Overcast
3:15 PM - - N/A% 29.88 in 10.0 mi West 17.3 mph 35.7 mph N/A   Mostly Cloudy
3:35 PM - - N/A% 29.89 in 10.0 mi WSW 17.3 mph 29.9 mph N/A   Scattered Clouds
3:55 PM - - N/A% 29.90 in 10.0 mi West 13.8 mph 25.3 mph N/A   Mostly Cloudy
4:15 PM - - N/A% 29.91 in 10.0 mi West 11.5 mph 17.3 mph N/A   Mostly Cloudy
4:35 PM - - N/A% 29.92 in 10.0 mi West 10.4 mph 19.6 mph N/A   Overcast
4:55 PM - - N/A% 29.93 in 10.0 mi West 13.8 mph 20.7 mph N/A   Mostly Cloudy
5:15 PM - - N/A% 29.94 in 10.0 mi WNW 8.1 mph - N/A   Mostly Cloudy
5:35 PM - - N/A% 29.95 in 10.0 mi West 8.1 mph 18.4 mph N/A   Scattered Clouds
5:55 PM - - N/A% 29.96 in 10.0 mi West 8.1 mph - N/A   Scattered Clouds
6:15 PM - - N/A% 29.97 in 10.0 mi West 6.9 mph - N/A   Scattered Clouds
6:35 PM - - N/A% 29.98 in 10.0 mi West 6.9 mph - N/A   Clear
6:55 PM - - N/A% 29.99 in 10.0 mi West 5.8 mph - N/A   Clear
7:15 PM - - N/A% 29.99 in 10.0 mi West 5.8 mph - N/A   Clear
7:35 PM - - N/A% 30.00 in 10.0 mi WSW 4.6 mph - N/A   Clear
7:55 PM - - N/A% 30.00 in 10.0 mi WSW 3.5 mph - N/A   Clear
8:15 PM - - N/A% 30.00 in 10.0 mi WSW 4.6 mph - N/A   Clear
8:35 PM - - N/A% 30.01 in 10.0 mi WSW 6.9 mph - N/A   Clear
8:55 PM - - N/A% 30.01 in 10.0 mi WSW 3.5 mph - N/A   Clear
9:15 PM - - N/A% 30.02 in 10.0 mi Calm Calm - N/A   Clear
9:35 PM - - N/A% 30.02 in 10.0 mi SW 3.5 mph - N/A   Clear
9:55 PM - - N/A% 30.02 in 10.0 mi SW 4.6 mph - N/A   Clear
10:15 PM - - N/A% 30.02 in 10.0 mi Calm Calm - N/A   Clear
10:35 PM - - N/A% 30.02 in 10.0 mi SW 3.5 mph - N/A   Clear
10:55 PM - - N/A% 30.02 in 10.0 mi Calm Calm - N/A   Clear
11:15 PM - - N/A% 30.02 in 10.0 mi Calm Calm - N/A   Clear
11:35 PM - - N/A% 30.02 in 10.0 mi Calm Calm - N/A   Clear
11:55 PM - - N/A% 30.03 in 10.0 mi SSW 4.6 mph - N/A   Clear